EW5822 Weather Reports


Display with metric or nautical units.
time (UTC)temp
F
wind
direction
speed
MPH
gust
MPH
rain 1hr
in
rain 24hr
in
rain mn
in
humidity
%
barometer
mb
20260504050216 65 75 7.0 11.0 0.00 0.00 0.00 56 1004.4
20260504045404 67 75 8.0 12.0 0.00 0.00 0.00 54 1004.6
20260504044715 68 78 9.0 15.0 0.00 0.00 0.00 52 1004.6
20260504043603 67 96 10.0 12.0 0.00 0.00 0.00 54 1004.5
20260504042703 68 91 11.0 17.0 0.00 0.00 0.00 52 1004.6
20260504041803 70 109 13.0 23.0 0.00 0.00 0.00 49 1004.6
20260504040903 69 142 8.0 15.0 0.00 0.00 0.00 50 1004.8
20260504040003 68 141 3.0 8.0 0.00 0.00 0.00 51 1004.8
20260504035614 68 102 4.0 12.0 0.00 0.00 0.00 50 1004.8
20260504034503 69 90 12.0 17.0 0.00 0.00 0.00 49 1004.8
20260504033603 69 89 12.0 17.0 0.00 0.00 0.00 50 1004.6
20260504032703 69 91 13.0 17.0 0.00 0.00 0.00 51 1004.9
20260504032013 69 94 12.0 15.0 0.00 0.00 0.00 50 1005.1
20260504031115 70 89 10.0 14.0 0.00 0.00 0.00 49 1005.3
20260504030004 70 77 9.0 12.0 0.00 0.00 0.00 51 1005.3
20260504025403 70 67 8.0 10.0 0.00 0.00 0.00 51 1005.4
20260504024503 70 73 9.0 11.0 0.00 0.00 0.00 50 1005.4
20260504023814 70 64 8.0 11.0 0.00 0.00 0.00 49 1005.4
20260504022916 70 62 10.0 13.0 0.00 0.00 0.00 49 1005.4
20260504021803 70 56 10.0 12.0 0.00 0.00 0.00 49 1005.3
20260504020903 69 34 5.0 9.0 0.00 0.00 0.00 50 1005.7
20260504020213 70 60 6.0 9.0 0.00 0.00 0.00 50 1005.8
20260504015403 70 57 6.0 9.0 0.00 0.00 0.00 48 1005.5
20260504014503 70 13 6.0 9.0 0.00 0.00 0.00 49 1005.5
20260504013603 71 62 7.0 10.0 0.00 0.00 0.00 47 1005.1
20260504012917 72 71 7.0 10.0 0.00 0.00 0.00 46 1004.9
20260504011803 72 72 7.0 10.0 0.00 0.00 0.00 45 1004.8
20260504011117 73 71 7.0 10.0 0.00 0.00 0.00 44 1004.8
20260504010004 73 86 8.0 12.0 0.00 0.00 0.00 44 1004.9
20260504005615 73 84 8.0 12.0 0.00 0.00 0.00 45 1004.9
20260504004713 74 79 6.0 9.0 0.00 0.00 0.00 45 1005.2
20260504003815 74 75 7.0 10.0 0.00 0.00 0.00 44 1005.3
20260504002912 75 72 6.0 10.0 0.00 0.00 0.00 44 1005.4
20260504002015 76 61 6.0 9.0 0.00 0.00 0.00 41 1005.7
20260504000903 76 77 7.0 10.0 0.00 0.00 0.00 42 1005.6
20260504000215 77 79 7.0 11.0 0.00 0.00 0.00 41 1005.8
20260503235616 77 74 7.0 11.0 0.00 0.00 0.00 40 1005.9
20260503234713 78 74 8.0 11.0 0.00 0.00 0.00 37 1006.0
20260503233816 78 71 8.0 11.0 0.00 0.00 0.00 40 1006.0
20260503232703 78 73 8.0 11.0 0.00 0.00 0.00 37 1006.2
20260503232016 78 84 7.0 10.0 0.00 0.00 0.00 36 1006.2
20260503231113 79 80 6.0 9.0 0.00 0.00 0.00 37 1006.3
20260503230215 79 80 7.0 9.0 0.00 0.00 0.00 36 1006.3
20260503225403 79 66 7.0 11.0 0.00 0.00 0.00 35 1006.3
20260503224714 80 60 7.0 11.0 0.00 0.00 0.00 32 1006.4
20260503223816 80 76 5.0 8.0 0.00 0.00 0.00 32 1006.6
20260503222914 80 103 4.0 6.0 0.00 0.00 0.00 33 1006.7
20260503222016 80 105 3.0 7.0 0.00 0.00 0.00 34 1006.7
20260503221113 80 106 3.0 7.0 0.00 0.00 0.00 32 1006.7
20260503220003 81 0 0.0 0.0 0.00 0.00 0.00 29 1006.8
20260503215404 81 112 1.0 4.0 0.00 0.00 0.00 29 1007.0
20260503214504 81 107 3.0 7.0 0.00 0.00 0.00 31 1007.0
20260503213817 82 113 1.0 4.0 0.00 0.00 0.00 31 1007.1
20260503212703 82 91 2.0 7.0 0.00 0.00 0.00 29 1007.2
20260503212017 82 86 1.0 3.0 0.00 0.00 0.00 30 1007.3
20260503210903 82 35 3.0 8.0 0.00 0.00 0.00 32 1007.4
20260503210003 82 34 5.0 12.0 0.00 0.00 0.00 31 1007.6
20260503205403 82 43 3.0 7.0 0.00 0.00 0.00 28 1007.7
20260503204503 81 211 1.0 5.0 0.00 0.00 0.00 29 1008.0
20260503203603 81 240 2.0 7.0 0.00 0.00 0.00 30 1008.1
20260503202703 81 312 3.0 11.0 0.00 0.00 0.00 30 1008.3
20260503202012 81 342 4.0 11.0 0.00 0.00 0.00 31 1008.4
20260503201115 80 320 2.0 8.0 0.00 0.00 0.00 36 1008.6
20260503200217 80 329 4.0 8.0 0.00 0.00 0.00 34 1008.9
20260503195403 80 204 2.0 6.0 0.00 0.00 0.00 34 1009.0
20260503194503 79 187 1.0 4.0 0.00 0.00 0.00 32 1009.2
20260503193813 79 17 2.0 7.0 0.00 0.00 0.00 34 1009.2
20260503192703 79 144 2.0 6.0 0.00 0.00 0.00 35 1009.4
20260503191803 78 177 2.0 8.0 0.00 0.00 0.00 35 1009.5
20260503190903 78 240 4.0 9.0 0.00 0.00 0.00 35 1009.6
20260503190213 78 268 5.0 9.0 0.00 0.00 0.00 35 1009.7
20260503185614 78 279 3.0 8.0 0.00 0.00 0.00 38 1009.7
20260503184717 77 318 5.0 10.0 0.00 0.00 0.00 35 1009.9
20260503183603 77 326 4.0 9.0 0.00 0.00 0.00 34 1010.0
20260503182703 77 345 3.0 9.0 0.00 0.00 0.00 35 1010.1
20260503182014 76 337 5.0 13.0 0.00 0.00 0.00 38 1010.3
20260503181116 76 298 5.0 12.0 0.00 0.00 0.00 38 1010.4
20260503180003 76 284 8.0 13.0 0.00 0.00 0.00 37 1010.7
20260503175615 76 273 6.0 12.0 0.00 0.00 0.00 38 1010.7
20260503174712 76 281 8.0 12.0 0.00 0.00 0.00 41 1010.8
20260503173814 75 292 9.0 16.0 0.00 0.00 0.00 38 1010.8
20260503172917 75 286 9.0 16.0 0.00 0.00 0.00 40 1010.9
20260503172014 75 273 7.0 13.0 0.00 0.00 0.00 40 1011.1
20260503170903 74 284 9.0 15.0 0.00 0.00 0.00 44 1011.3
20260503150903 65 228 8.0 15.0 0.00 0.00 0.00 56 1011.9
20260503150215 65 228 9.0 17.0 0.00 0.00 0.00 55 1012.0
20260503131114 57 179 14.0 21.0 0.00 0.00 0.00 64 1011.7
20260503130216 56 175 16.0 22.0 0.00 0.00 0.00 64 1011.7
20260503120217 51 175 8.0 13.0 0.00 0.00 0.00 71 1012.0
20260503100218 52 165 17.0 21.0 0.00 0.00 0.00 61 1012.3
20260503090214 52 164 14.0 18.0 0.00 0.00 0.00 60 1012.9
20260503080903 52 159 14.0 17.0 0.00 0.00 0.00 56 1013.0
20260503080214 53 156 14.0 20.0 0.00 0.00 0.00 55 1013.0
20260503072913 52 154 13.0 17.0 0.00 0.00 0.00 58 1013.3
20260503072015 52 156 13.0 18.0 0.00 0.00 0.00 57 1013.4
20260503071113 52 157 14.0 19.0 0.00 0.00 0.00 56 1013.5
20260503070215 52 162 15.0 21.0 0.00 0.00 0.00 56 1013.7
20260503060216 54 159 17.0 22.0 0.00 0.00 0.00 52 1013.9